Regional Weather Roundup
Issued by NWS

Home | Current Version | Previous Version | Text Only | Print | Product List | Glossary On
Versions: 1 2 3 4 5 6 7 8 9 10 11 12 13 14 15 16 17 18 19 20 21 22 23 24 25 26 27
000
ASUS44 KJAN 281720
RWRMS

MISSISSIPPI HOURLY WEATHER ROUNDUP
NATIONAL WEATHER SERVICE JACKSON MS
1200 PM CDT WED SEP 28 2016

NOTE: "FAIR: INDICATES FEW OR NO CLOUDS BELOW 12,000 FEET WITH NO
SIGNIFICANT WEATHER AND/OR OBSTRUCTIONS TO VISIBILITY.

MSZ001>002-007>008-010>013-018>021-025>028-034>036-281800-
NORTHWEST MISSISSIPPI

CITY           SKY/WX    TMP DP  RH WIND       PRES   REMARKS
BATESVILLE     FAIR      81  49  32 W9        29.97F
CLEVELAND      FAIR      83  50  32 NW8       29.98F
GREENWOOD      SUNNY     80  53  39 SW8       30.00F
GREENVILLE     SUNNY     82  54  37 W10       29.99F
OLIVE BRANCH   SUNNY    N/A N/A N/A SW13      29.92F
OXFORD         FAIR      81  46  30 SW8       29.98F
TUNICA         SUNNY     82  50  32 SW12G17   29.95F
WINONA         FAIR      78  49  36 SW5       30.00F
$$

MSZ003>006-009-014>017-022>024-029>033-037>039-281800-
NORTHEAST MISSISSIPPI

CITY           SKY/WX    TMP DP  RH WIND       PRES   REMARKS
COLUMBUS AFB   SUNNY     82  45  27 W9        29.97F
CORINTH        FAIR      82  46  28 W7G17     29.94F
GOLDN TRIANGLE SUNNY     81  43  26 CALM      29.98F
TUPELO         SUNNY     82  43  25 S8        29.96F
$$

MSZ040-058-281800-
CENTRAL MISSISSIPPI

CITY           SKY/WX    TMP DP  RH WIND       PRES   REMARKS
JACKSON INTL   SUNNY     82  49  31 W8        30.01F
JACKSON HAWKNS SUNNY     80  46  30 NW7       30.03F
MADISON        FAIR      79  46  31 NW6       30.01F
MERIDIAN KEY   SUNNY     86  50  28 SW8       30.00F
MERIDIAN NAS   SUNNY     84  44  24 NW5       30.00F
VICKSBURG VKS  SUNNY     79  54  41 CALM      30.03S
$$

MSZ059>079-281800-
SOUTH MISSISSIPPI

CITY           SKY/WX    TMP DP  RH WIND       PRES   REMARKS
BROOKHAVEN     FAIR     N/A N/A N/A W5        30.04F
HATTIESBURG    SUNNY     82  56  40 VRB3      30.02S
LAUREL         FAIR      82  52  34 CALM      30.01F
MCCOMB         SUNNY     81  57  43 N6        30.03F
NATCHEZ        SUNNY     79  55  44 W6        30.04S
PINE BELT      SUNNY     82  55  39 W6        30.02F
$$

MSZ080>082-281800-
COASTAL MISSISSIPPI

CITY           SKY/WX    TMP DP  RH WIND       PRES   REMARKS
BAY ST LOUIS   SUNNY     84  55  37 N5        30.01F
BILOXI         SUNNY     86  65  50 N6        29.99F
PASCAGOULA     MOSUNNY   86  66  51 VRB3      29.99F
GULFPORT       SUNNY     86  61  42 N6        29.99F
$$

LAZ007>009-015>016-023>026-281800-
NORTHEAST LOUISIANA

CITY           SKY/WX    TMP DP  RH WIND       PRES   REMARKS
BASTROP        FAIR      81  54  39 NW5       30.03S
TALLULAH/VBURG SUNNY     81  51  35 VRB3      30.03F
$$




USA.gov is the U.S. government's official web portal to all federal, state and local government web resources and services.